Weather History for Uvalde, TX

Change the Weather History Date:

Monday, May 5, 2014

  Actual Average (KHDO) Record (KHDO)
Temperature  
Mean Temperature 76 °F -  
Max Temperature 95 °F 83 °F 99 °F (2003)
Min Temperature 57 °F 62 °F 46 °F (2013)
Cooling Degree Days 11    
Growing Degree Days 26 (Base 50)    
Moisture  
Dew Point 57 °F    
Average Humidity 56    
Maximum Humidity 92    
Minimum Humidity 23    
Precipitation  
Precipitation 0.00 in - - ()
Sea Level Pressure  
Sea Level Pressure 29.92 in    
Wind  
Wind Speed 9 mph (ESE)    
Max Wind Speed 17 mph    
Max Gust Speed 21 mph    
Visibility 10 miles    
Events      
Averages and records for this station are not official NWS values.
T = Trace of Precipitation, MM = Missing Value Source: NWS Daily Summary

Daily Weather History Graph

Daily Weather History Graph

Search for Another Location

Airport:

Trip Planner

Search our weather history database for the weather conditions in past years. The results will help you decide how hot, cold, wet, or windy it might be!

Date:

Astronomy

May. 05, 2014 Rise Set
Actual Time 6:53 AM CDT 8:17 PM CDT
Civil Twilight 6:28 AM CDT 8:43 PM CDT
Nautical Twilight 5:58 AM CDT 9:13 PM CDT
Astronomical Twilight 5:27 AM CDT 9:44 PM CDT
Moon 12:13 PM CDT (5/5) 1:03 AM CDT (5/5)
Length of Visible Light 14h 14m
Length of Day
13h 23m
Waxing Crescent, 37% of the Moon is Illuminated
May 5
Waxing Crescent
May 6
First Quarter
May 14
Full
May 21
Last Quarter
May 28
New

Hourly Weather History & Observations

Time (CDT) Temp. Heat Index Dew Point Humidity Pressure Visibility Wind Dir Wind Speed Gust Speed Precip Events Conditions
12:15 AM 73.2 °F - 56.3 °F 55% 30.01 in 10.0 mi ESE 12.7 mph 18.4 mph N/A   Clear
12:35 AM 72.9 °F - 56.3 °F 56% 30.01 in 10.0 mi ESE 10.4 mph - N/A   Clear
12:55 AM 72.9 °F - 57.2 °F 58% 30.01 in 10.0 mi ESE 8.1 mph - N/A   Clear
1:15 AM 72.9 °F - 58.1 °F 60% 30.01 in 10.0 mi ESE 8.1 mph 16.1 mph N/A   Clear
1:35 AM 70.3 °F - 56.3 °F 61% 30.01 in 10.0 mi ESE 8.1 mph - N/A   Clear
2:15 AM 68.0 °F - 56.3 °F 66% 30.00 in 10.0 mi East 5.8 mph - N/A   Clear
2:35 AM 68.0 °F - 57.2 °F 68% 29.99 in 10.0 mi East 6.9 mph - N/A   Clear
2:55 AM 68.0 °F - 58.5 °F 71% 29.99 in 10.0 mi East 6.9 mph - N/A   Clear
3:15 AM 67.5 °F - 59.4 °F 75% 29.99 in 10.0 mi East 6.9 mph - N/A   Clear
3:35 AM 66.9 °F - 59.4 °F 77% 29.99 in 10.0 mi East 6.9 mph - N/A   Clear
3:55 AM 65.3 °F - 58.3 °F 78% 29.99 in 10.0 mi East 4.6 mph - N/A   Clear
4:15 AM 64.6 °F - 58.3 °F 80% 29.99 in 10.0 mi ENE 5.8 mph - N/A   Clear
4:35 AM 61.7 °F - 56.1 °F 82% 29.99 in 10.0 mi ENE 6.9 mph - N/A   Clear
4:55 AM 60.3 °F - 55.2 °F 83% 29.98 in 10.0 mi ENE 6.9 mph - N/A   Clear
5:15 AM 60.1 °F - 55.2 °F 84% 29.98 in 10.0 mi ENE 5.8 mph - N/A   Clear
5:35 AM 59.2 °F - 54.9 °F 86% 29.98 in 10.0 mi ENE 6.9 mph - N/A   Clear
5:55 AM 58.5 °F - 54.7 °F 87% 29.98 in 10.0 mi ENE 5.8 mph - N/A   Clear
6:15 AM 57.7 °F - 54.5 °F 89% 29.98 in 10.0 mi ENE 4.6 mph - N/A   Clear
6:35 AM 57.7 °F - 55.0 °F 91% 29.98 in 10.0 mi ENE 6.9 mph - N/A   Clear
6:55 AM 57.7 °F - 55.4 °F 92% 29.99 in 10.0 mi ENE 5.8 mph - N/A   Clear
7:15 AM 57.7 °F - 54.9 °F 90% 30.00 in 10.0 mi NE 6.9 mph - N/A   Scattered Clouds
7:35 AM 60.1 °F - 56.7 °F 88% 30.00 in 10.0 mi ENE 5.8 mph - N/A   Mostly Cloudy
7:55 AM 61.0 °F - 56.8 °F 86% 30.02 in 10.0 mi ENE 3.5 mph - N/A   Overcast
8:15 AM 62.8 °F - 58.1 °F 85% 30.02 in 10.0 mi East 3.5 mph - N/A   Overcast
8:35 AM 65.3 °F - 60.8 °F 85% 30.02 in 10.0 mi East 4.6 mph - N/A   Overcast
8:55 AM 65.3 °F - 60.4 °F 84% 30.01 in 10.0 mi ESE 5.8 mph - N/A   Overcast
9:15 AM 68.0 °F - 63.1 °F 84% 30.00 in 10.0 mi SE 8.1 mph - N/A   Overcast
9:35 AM 68.0 °F - 62.6 °F 83% 30.00 in 10.0 mi SE 9.2 mph - N/A   Overcast
9:55 AM 68.0 °F - 62.6 °F 83% 30.02 in 10.0 mi SSE 10.4 mph - N/A   Overcast
10:15 AM 68.0 °F - 61.5 °F 80% 30.01 in 10.0 mi SE 4.6 mph - N/A   Mostly Cloudy
10:35 AM 69.6 °F - 62.4 °F 78% 30.01 in 10.0 mi SE 8.1 mph - N/A   Scattered Clouds
10:55 AM 72.9 °F - 64.2 °F 74% 30.00 in 10.0 mi SSE 8.1 mph - N/A   Mostly Cloudy
11:15 AM 73.2 °F - 62.2 °F 68% 29.99 in 10.0 mi SE 3.5 mph - N/A   Scattered Clouds
11:35 AM 75.4 °F - 63.0 °F 65% 29.98 in 10.0 mi ESE 8.1 mph - N/A   Clear
11:55 AM 77.9 °F - 63.3 °F 61% 29.98 in 10.0 mi SSE 9.2 mph - N/A   Clear
12:15 PM 78.1 °F - 62.1 °F 58% 29.97 in 10.0 mi SSE 8.1 mph - N/A   Clear
12:35 PM 80.6 °F 81.6 °F 61.7 °F 52% 29.96 in 10.0 mi ESE 9.2 mph - N/A   Clear
12:55 PM 82.4 °F 82.9 °F 61.2 °F 48% 29.94 in 10.0 mi SSE 5.8 mph 9.2 mph N/A   Clear
1:15 PM 86.2 °F 86.6 °F 61.7 °F 44% 29.93 in 10.0 mi SE 8.1 mph 18.4 mph N/A   Clear
1:35 PM 88.0 °F 88.4 °F 62.2 °F 42% 29.92 in 10.0 mi ESE 11.5 mph 16.1 mph N/A   Clear
1:55 PM 88.0 °F 87.6 °F 60.4 °F 39% 29.91 in 10.0 mi ESE 11.5 mph 17.3 mph N/A   Clear
2:15 PM 89.1 °F 88.5 °F 59.4 °F 37% 29.90 in 10.0 mi SSE 8.1 mph - N/A   Clear
2:35 PM 90.1 °F 89.1 °F 57.9 °F 34% 29.89 in 10.0 mi SSE 9.2 mph 17.3 mph N/A   Clear
2:55 PM 92.1 °F 91.1 °F 58.3 °F 32% 29.88 in 10.0 mi South 12.7 mph 18.4 mph N/A   Clear
3:15 PM 93.2 °F 92.6 °F 59.2 °F 32% 29.87 in 10.0 mi SE 5.8 mph 9.2 mph N/A   Clear
3:35 PM 93.2 °F 91.6 °F 56.8 °F 29% 29.86 in 10.0 mi South 8.1 mph 17.3 mph N/A   Clear
3:55 PM 93.2 °F 91.3 °F 55.4 °F 28% 29.85 in 10.0 mi SSE 12.7 mph 19.6 mph N/A   Clear
4:15 PM 93.2 °F 91.0 °F 54.5 °F 27% 29.84 in 10.0 mi SSE 10.4 mph 18.4 mph N/A   Clear
4:35 PM 93.2 °F 90.8 °F 54.0 °F 26% 29.83 in 10.0 mi SSE 9.2 mph 18.4 mph N/A   Clear
4:55 PM 93.9 °F 91.4 °F 53.2 °F 25% 29.82 in 10.0 mi SE 11.5 mph - N/A   Clear
5:15 PM 93.7 °F 91.2 °F 53.4 °F 25% 29.81 in 10.0 mi SSE 9.2 mph 19.6 mph N/A   Clear
5:35 PM 95.5 °F 93.1 °F 53.4 °F 24% 29.81 in 10.0 mi SSE 17.3 mph - N/A   Clear
5:55 PM 95.5 °F - 52.9 °F 24% 29.80 in 10.0 mi SSE 11.5 mph 20.7 mph N/A   Clear
6:15 PM 94.1 °F - 51.4 °F 23% 29.80 in 10.0 mi SSE 12.7 mph 18.4 mph N/A   Clear
6:35 PM 95.2 °F - 52.3 °F 23% 29.79 in 10.0 mi SSE 11.5 mph 20.7 mph N/A   Clear
6:55 PM 93.2 °F - 50.9 °F 24% 29.78 in 10.0 mi SE 13.8 mph 17.3 mph N/A   Clear
7:15 PM 93.2 °F - 50.5 °F 23% 29.78 in 10.0 mi SSE 13.8 mph - N/A   Clear
7:35 PM 93.2 °F - 51.8 °F 24% 29.78 in 10.0 mi SSE 11.5 mph 16.1 mph N/A   Clear
7:55 PM 90.5 °F - 50.9 °F 26% 29.79 in 10.0 mi SSE 9.2 mph - N/A   Clear
8:15 PM 88.0 °F - 50.2 °F 27% 29.79 in 10.0 mi SE 8.1 mph - N/A   Clear
8:35 PM 88.0 °F - 51.8 °F 29% 29.80 in 10.0 mi ESE 5.8 mph - N/A   Clear
8:55 PM 84.9 °F - 51.4 °F 31% 29.80 in 10.0 mi ESE 5.8 mph - N/A   Clear
9:15 PM 86.2 °F 84.4 °F 53.6 °F 33% 29.81 in 10.0 mi ESE 8.1 mph - N/A   Clear
9:35 PM 85.5 °F 83.7 °F 53.2 °F 33% 29.81 in 10.0 mi ESE 9.2 mph - N/A   Clear
9:55 PM 85.3 °F 83.6 °F 53.8 °F 34% 29.83 in 10.0 mi ESE 10.4 mph - N/A   Clear
10:15 PM 81.7 °F 81.4 °F 56.7 °F 42% 29.84 in 10.0 mi ESE 11.5 mph - N/A   Clear
10:35 PM 80.6 °F 81.1 °F 59.4 °F 48% 29.86 in 10.0 mi SE 15.0 mph - N/A   Clear
10:55 PM 79.2 °F - 59.4 °F 51% 29.88 in 10.0 mi ESE 10.4 mph 16.1 mph N/A   Clear
11:15 PM 77.9 °F - 59.4 °F 53% 29.88 in 10.0 mi ESE 10.4 mph - N/A   Clear
11:35 PM 77.9 °F - 60.4 °F 55% 29.88 in 10.0 mi ESE 11.5 mph - N/A   Clear